Meteo Giornale » Osservazioni meteo Italia » Venezia-Tessera

ore: 10:50 - Osservazioni Meteo Venezia-Tessera
Lat. 45° 30' N Lon. 12° 20' E Alt. 2 metri s.l.m.

molto_nuvoloso Europe/Rome

14 °C

Molto Nuvoloso

Temp. 24 Ore

12 °C

14 °C

Nord/Nord-Est

9.3 Km/h

Dew point 11 °C

Umidità 82 %

Visibilità  6 Km

Il sole sorge alle ore 06:05

Il sole tramonta alle ore 18:28

Data e Ora Cielo e Fenomeni T °C DP °C Um. % Pres. hPa Vis. km Vento km/h
Oggi h: 10:50 molto_nuvoloso Molto Nuvoloso 14 11 82 1017 6 N/NE 9.3
Oggi h: 10:20 foschia Foschia 14 11 82 1017 5 N 5.5
Oggi h: 09:50 foschia Foschia 14 11 82 1017 4 NE 7.4
Oggi h: 09:20 foschia Foschia 13 11 87 1017 4 N/NE 9.3
Oggi h: 08:50 foschia Foschia 13 11 87 1016 3 N 7.4
Oggi h: 07:50 foschia Foschia 12 11 93 1016 3 E/NE 7.4
Oggi h: 07:20 foschia Foschia 12 11 93 1015 2 NE 7.4
Oggi h: 06:50 foschia Foschia 12 11 93 1015 2 N 11.1
Oggi h: 06:20 foschia Foschia 12 11 93 1015 2 N/NO 13
Oggi h: 05:50 foschia Foschia 12 11 93 1015 3 N/NO 9.3
Oggi h: 05:20 foschia Foschia 12 11 93 1015 3 N 7.4
Oggi h: 04:50 foschia Foschia 12 11 93 1015 3 N/NO 9.3
Oggi h: 04:20 foschia Foschia 12 11 93 1015 4 N/NE 9.3
Oggi h: 03:50 foschia Foschia 12 11 93 1014 4 NE 11.1
Oggi h: 03:20 foschia Foschia 13 11 87 1015 4 NE 9.3
Oggi h: 02:50 foschia Foschia 13 11 87 1015 4 NE 7.4
Oggi h: 02:20 foschia Foschia 12 11 93 1015 4 NE 11.1
Oggi h: 01:50 foschia Foschia 12 11 93 1015 4 NE 9.3
Oggi h: 01:20 foschia Foschia 12 11 93 1015 3 NE 11.1
Oggi h: 00:50 foschia Foschia 12 11 93 1015 3 NE 14.8
Oggi h: 00:20 foschia Foschia 12 11 93 1015 4 NE 14.8
Ieri h: 23:50 foschia Foschia 12 11 93 1015 4 N/NE 14.8
Ieri h: 23:20 foschia Foschia 13 11 87 1015 4 E/NE 16.7
Ieri h: 22:50 molto_nuvoloso Molto Nuvoloso 12 11 93 1015 6 NE 14.8
Ieri h: 22:20 molto_nuvoloso Molto Nuvoloso 12 11 93 1015 6 NE 13
Ieri h: 21:50 molto_nuvoloso Molto Nuvoloso 12 11 93 1015 7 NE 13
Ieri h: 21:20 molto_nuvoloso Molto Nuvoloso 13 11 87 1015 8 E/NE 11.1
Ieri h: 20:50 molto_nuvoloso Molto Nuvoloso 13 11 87 1015 7 E/NE 13
Ieri h: 20:20 molto_nuvoloso Molto Nuvoloso 12 11 93 1014 7 E 11.1
Ieri h: 19:50 molto_nuvoloso Molto Nuvoloso 13 11 87 1014 7 E 11.1
Ieri h: 19:20 molto_nuvoloso Molto Nuvoloso 13 11 87 1014 8 E 9.3
Ieri h: 18:50 molto_nuvoloso Molto Nuvoloso 13 11 87 1014 8 E 9.3
Ieri h: 18:20 molto_nuvoloso Molto Nuvoloso 13 11 87 1014 7 E 9.3
Ieri h: 17:50 molto_nuvoloso Molto Nuvoloso 13 11 87 1013 8 E/NE 13
Ieri h: 17:20 molto_nuvoloso Molto Nuvoloso 13 11 87 1013 8 E/NE 11.1
Ieri h: 16:50 molto_nuvoloso Molto Nuvoloso 13 11 87 1013 7 E 9.3
Ieri h: 16:20 molto_nuvoloso Molto Nuvoloso 13 11 87 1013 6 E 9.3
Ieri h: 15:50 foschia Foschia 13 11 87 1013 5 E 11.1
Ieri h: 15:20 foschia Foschia 13 12 93 1013 4 E 11.1
Ieri h: 14:50 foschia Foschia 13 12 93 1013 4 E 11.1
Ieri h: 14:20 molto_nuvoloso Molto Nuvoloso 13 11 87 1013 6 E 11.1
Ieri h: 13:50 molto_nuvoloso Molto Nuvoloso 13 11 87 1013 7 E/NE 11.1
Ieri h: 13:20 coperto_pioggia Pioviggine Leggera 12 12 100 1013 6 E/NE 11.1
Ieri h: 12:50 coperto_pioggia Pioviggine Leggera Foschia 12 11 93 1013 4 E 11.1
Ieri h: 12:20 coperto_pioggia Pioviggine Leggera Foschia 12 11 93 1013 2 E 13
Ieri h: 11:50 coperto_pioggia Pioviggine Leggera Foschia 12 12 100 1013 2 E 13
Ieri h: 11:20 coperto_pioggia Pioviggine Leggera Foschia 12 11 93 1013 0.9 E/NE 11.1
Ieri h: 10:50 foschia Foschia 12 11 93 1013 2 E/NE 9.3